This is the latest recevied weather packets stored in our database for station/object AC5CM. If no packets are shown the sender has not sent any weather packets the latest 10 day(s).
| Time | Temp. | Humidity | Pressure | Rain* | Wind** | Luminosity | Snow |
|---|---|---|---|---|---|---|---|
| 1777751457 | 24.44° C | 40% | 1020.2 hPa | 0 mm | - | - | - |
| 1777751154 | 24.44° C | 39% | 1020.1 hPa | 0 mm | - | - | - |
| 1777750850 | 24.44° C | 39% | 1020 hPa | 0 mm | - | - | - |
| 1777750548 | 24.44° C | 41% | 1020.1 hPa | 0 mm | - | - | - |
| 1777750244 | 24.44° C | 44% | 1020.2 hPa | 0 mm | - | - | - |
| 1777749940 | 24.44° C | 41% | 1020.3 hPa | 0 mm | - | - | - |
| 1777749638 | 24.44° C | 43% | 1020.7 hPa | 0 mm | - | - | - |
| 1777749334 | 24.44° C | 44% | 1020.5 hPa | 0 mm | - | - | - |
| 1777749032 | 24.44° C | 41% | 1020.5 hPa | 0 mm | - | - | - |
| 1777748730 | 24.44° C | 45% | 1020.8 hPa | 0 mm | - | - | - |
| 1777748427 | 24.44° C | 43% | 1020.6 hPa | 0 mm | - | - | - |
| 1777748121 | 23.89° C | 45% | 1020.8 hPa | 0 mm | - | - | - |
| 1777747818 | 23.89° C | 45% | 1020.7 hPa | 0 mm | - | - | - |
| 1777747514 | 23.89° C | 45% | 1020.7 hPa | 0 mm | - | - | - |
| 1777747210 | 23.89° C | 47% | 1020.8 hPa | 0 mm | - | - | - |
| 1777746907 | 23.89° C | 47% | 1020.8 hPa | 0 mm | - | - | - |
| 1777746602 | 24.44° C | 46% | 1020.8 hPa | 0 mm | - | - | - |
| 1777746297 | 23.89° C | 48% | 1020.9 hPa | 0 mm | - | - | - |
| 1777745994 | 23.89° C | 48% | 1021.1 hPa | 0 mm | - | - | - |
| 1777745692 | 23.89° C | 48% | 1021.3 hPa | 0 mm | - | - | - |
| 1777745391 | 23.33° C | 46% | 1021.3 hPa | 0 mm | - | - | - |
| 1777745088 | 23.33° C | 49% | 1021.3 hPa | 0 mm | - | - | - |
| 1777744784 | 23.33° C | 45% | 1021.2 hPa | 0 mm | - | - | - |
| 1777744484 | 23.33° C | 46% | 1021.4 hPa | 0 mm | - | - | - |
| 1777744181 | 23.33° C | 47% | 1021.2 hPa | 0 mm | - | - | - |
* Rain latest hour (hover to see other rain measurements)
** Current wind speed in m/s (hover to see current wind gust speed)